Location: *
(40.7873°S, 98.7174°E)
Time: 22:35:21
(UTC+00:00)

Cosmos 1153 Rocket - Pass Details

Date: 08 October 2022
Orbit: 953 x 1007 km, 82.9° (Epoch: 08 December)

Event Time Altitude Azimuth Distance (km) Brightness Sun altitude
Rises 20:49:14 0° 205° (SSW) 3,677 7.6 -21.8°
Reaches altitude 10° 20:52:40 10° 223° (SW) 2,715 6.7 -21.2°
Enters shadow 20:54:39 15° 241° (WSW) 2,351 6.2 -20.9°
